Location: Franzen
(48.6167°N, 15.3833°E)
Time: 04:30:56
(UTC+00:00)

Altair - Pass Details

Date: 05 August 2021
Orbit: 1501 x 1682 km, 47.2° (Epoch: 21 September)

Event Time Altitude Azimuth Distance (km) Brightness Sun altitude
Exits shadow 22:00:56 26° 124° (SE) 2,696 8.3 -23.2°
Drops below altitude 10° 22:07:10 10° 82° (E) 3,702 9.4 -23.4°
Sets 22:10:46 0° 71° (ENE) 4,667 10.1 -23.6°
